Location: Newark
(45.8667°N, 9.7333°E)
Time: 15:01:42
(UTC+00:00)

A-11 Canister half - Pass Details

Date: 28 January 2020
Orbit: 1517 x 1683 km, 47.2° (Epoch: 23 February)

Event Time Altitude Azimuth Distance (km) Brightness Sun altitude
Rises 19:10:22 0° 170° (S) 4,790 11.5 -29.6°
Enters shadow 19:12:22 - 162° (SSE) 4,376 11.2 -30.0°
Reaches altitude 10° 19:16:27 10° 141° (SE) 3,767 - -30.7°
Maximum altitude 19:19:20 12° 123° (ESE) 3,616 - -31.2°
Drops below altitude 10° 19:22:11 10° 105° (ESE) 3,736 - -31.7°
Sets 19:28:05 0° 76° (ENE) 4,693 - -32.7°
